TimeCDT,TemperatureF,Dew PointF,Humidity,Sea Level PressureIn,VisibilityMPH,Wind Direction,Wind SpeedMPH,Gust SpeedMPH,PrecipitationIn,Events,Conditions,WindDirDegrees,DateUTC
12:55 AM,69.8,69.8,100,30.08,10.0,ESE,5.8,-,N/A,,Overcast,120,2013-09-18 05:55:00
12:58 AM,68.9,68.9,100,30.07,10.0,ESE,5.8,-,0.07,,Overcast,110,2013-09-18 05:58:00
1:08 AM,69.8,69.8,100,30.08,10.0,NNE,4.6,-,N/A,Rain,Light Rain,30,2013-09-18 06:08:00
1:30 AM,69.8,69.8,100,30.06,10.0,ESE,11.5,-,N/A,,Mostly Cloudy,120,2013-09-18 06:30:00
1:32 AM,69.8,69.8,100,30.06,10.0,SE,11.5,-,N/A,,Light Drizzle,130,2013-09-18 06:32:00
1:44 AM,68.0,68.0,100,30.07,10.0,ESE,9.2,-,N/A,,Mostly Cloudy,120,2013-09-18 06:44:00
1:58 AM,68.5,68.5,100,30.06,10.0,ESE,9.2,-,0.00,,Overcast,120,2013-09-18 06:58:00
2:58 AM,68.0,68.0,100,30.05,10.0,SE,8.1,-,N/A,,Overcast,140,2013-09-18 07:58:00
3:58 AM,68.0,68.0,100,30.04,10.0,SSE,6.9,-,N/A,,Overcast,160,2013-09-18 08:58:00
4:58 AM,68.0,68.0,100,30.04,10.0,SSE,6.9,-,N/A,,Overcast,150,2013-09-18 09:58:00
5:58 AM,67.3,67.3,100,30.04,10.0,SSE,6.9,-,N/A,,Mostly Cloudy,150,2013-09-18 10:58:00
6:58 AM,66.7,66.7,100,30.04,9.0,SSE,6.9,-,N/A,,Scattered Clouds,150,2013-09-18 11:58:00
7:58 AM,67.8,67.8,100,30.05,10.0,SSE,6.9,-,N/A,,Mostly Cloudy,160,2013-09-18 12:58:00
8:47 AM,71.6,68.0,88,30.07,10.0,South,4.6,-,N/A,,Light Drizzle,180,2013-09-18 13:47:00
8:57 AM,71.6,69.8,94,30.07,2.0,SSE,6.9,-,N/A,Rain,Heavy Rain,160,2013-09-18 13:57:00
8:58 AM,71.6,69.4,93,30.06,2.0,SSE,6.9,-,0.06,Rain,Heavy Rain,160,2013-09-18 13:58:00
9:08 AM,69.8,69.8,100,30.07,9.0,SSW,5.8,-,N/A,,Light Drizzle,200,2013-09-18 14:08:00
9:18 AM,69.8,69.8,100,30.07,1.0,South,12.7,-,N/A,Rain,Heavy Rain,170,2013-09-18 14:18:00
9:23 AM,69.8,69.8,100,30.07,0.8,SSE,9.2,-,N/A,Rain,Rain,160,2013-09-18 14:23:00
9:24 AM,69.8,69.8,100,30.07,1.0,SSE,8.1,-,N/A,Rain-Thunderstorm,Thunderstorms and Rain,160,2013-09-18 14:24:00
9:29 AM,69.8,69.8,100,30.07,2.5,SSE,10.4,-,N/A,Rain-Thunderstorm,Thunderstorms and Rain,160,2013-09-18 14:29:00
9:34 AM,69.8,69.8,100,30.07,6.0,South,8.1,-,N/A,Rain-Thunderstorm,Light Thunderstorms and Rain,170,2013-09-18 14:34:00
9:37 AM,69.8,69.8,100,30.07,10.0,South,6.9,-,N/A,Thunderstorm,Thunderstorm,170,2013-09-18 14:37:00
9:57 AM,69.8,69.8,100,30.08,10.0,SSE,8.1,-,N/A,Thunderstorm,Overcast,150,2013-09-18 14:57:00
9:58 AM,70.7,69.6,96,30.07,10.0,SSE,8.1,-,0.28,Thunderstorm,Overcast,150,2013-09-18 14:58:00
10:58 AM,75.0,70.5,86,30.05,10.0,SE,8.1,-,N/A,,Scattered Clouds,140,2013-09-18 15:58:00
11:58 AM,77.4,70.5,79,30.04,10.0,SSE,10.4,-,N/A,,Mostly Cloudy,150,2013-09-18 16:58:00
12:58 PM,80.8,71.1,72,30.03,10.0,SSW,5.8,-,N/A,,Scattered Clouds,200,2013-09-18 17:58:00
1:39 PM,80.6,69.8,70,30.05,10.0,Variable,6.9,-,N/A,,Light Drizzle,0,2013-09-18 18:39:00
1:48 PM,78.8,69.8,74,30.05,10.0,SSW,4.6,-,N/A,,Partly Cloudy,210,2013-09-18 18:48:00
1:51 PM,78.8,71.6,78,30.06,10.0,Variable,5.8,-,N/A,,Light Drizzle,0,2013-09-18 18:51:00
1:58 PM,77.9,70.9,79,30.03,10.0,SW,4.6,-,0.00,Rain,Light Rain,230,2013-09-18 18:58:00
2:58 PM,71.6,71.6,100,30.03,4.0,Variable,4.6,-,0.07,Rain,Light Rain,0,2013-09-18 19:58:00
3:13 PM,71.6,71.6,100,30.04,2.5,Variable,4.6,-,N/A,Rain,Rain,0,2013-09-18 20:13:00
3:38 PM,71.6,71.6,100,30.03,3.0,South,4.6,-,N/A,Rain,Light Rain,190,2013-09-18 20:38:00
3:58 PM,71.4,71.4,100,30.02,6.0,South,4.6,-,0.13,Rain,Light Rain,190,2013-09-18 20:58:00
4:13 PM,71.6,71.6,100,30.03,10.0,South,5.8,-,N/A,,Mostly Cloudy,190,2013-09-18 21:13:00
4:15 PM,71.6,71.6,100,30.03,10.0,South,4.6,-,N/A,,Light Drizzle,180,2013-09-18 21:15:00
4:36 PM,73.4,73.4,100,30.02,10.0,South,4.6,-,N/A,,Scattered Clouds,190,2013-09-18 21:36:00
4:58 PM,73.6,73.6,100,30.01,10.0,South,3.5,-,0.00,,Mostly Cloudy,180,2013-09-18 21:58:00
5:07 PM,73.4,73.4,100,30.02,10.0,South,3.5,-,N/A,,Light Drizzle,180,2013-09-18 22:07:00
5:19 PM,73.4,73.4,100,30.00,10.0,SSE,8.1,-,N/A,,Mostly Cloudy,150,2013-09-18 22:19:00
5:44 PM,73.4,73.4,100,29.99,10.0,SSE,5.8,-,N/A,,Light Drizzle,150,2013-09-18 22:44:00
5:56 PM,75.2,73.4,94,29.99,10.0,SSE,5.8,-,N/A,,Scattered Clouds,160,2013-09-18 22:56:00
5:58 PM,75.2,73.4,94,29.96,10.0,SSE,8.1,-,0.00,,Scattered Clouds,160,2013-09-18 22:58:00
6:58 PM,73.4,72.3,96,29.97,10.0,Variable,5.8,-,N/A,,Mostly Cloudy,0,2013-09-18 23:58:00
7:58 PM,72.5,70.2,92,29.96,10.0,SSE,5.8,-,N/A,,Mostly Cloudy,160,2013-09-19 00:58:00
8:58 PM,72.5,69.8,91,29.98,10.0,SSE,6.9,-,N/A,,Overcast,150,2013-09-19 01:58:00
9:58 PM,71.2,70.9,99,29.99,10.0,SSE,8.1,-,N/A,,Overcast,150,2013-09-19 02:58:00
10:58 PM,70.5,70.5,100,29.98,10.0,SSE,6.9,-,N/A,,Mostly Cloudy,150,2013-09-19 03:58:00
11:58 PM,70.9,70.9,100,29.98,10.0,SSE,5.8,-,N/A,,Mostly Cloudy,160,2013-09-19 04:58:00